Cortez, CO

10:46 AM MST on February 21, 2018 (GMT -0700)
Cortez Municipal

Weather History for KCEZ - November, 2013

Change the Weather History Date:

Friday, November 8, 2013

  Actual Average Record
Temperature  
Mean Temperature 42 °F 40 °F  
Max Temperature 61 °F 55 °F 69 °F (2006)
Min Temperature 22 °F 24 °F 16 °F (2000)
Degree Days  
Heating Degree Days 23 25  
Month to date heating degree days 208 190  
Since 1 July heating degree days 888 872  
Cooling Degree Days 0 0  
Month to date cooling degree days 0 0  
Year to date cooling degree days 667 426  
Moisture  
Dew Point 19 °F    
Average Humidity 45    
Maximum Humidity 75    
Minimum Humidity 15    
Precipitation  
Precipitation 0.00 in 0.04 in 0.99 in (1998)
Month to date precipitation T 0.36  
Year to date precipitation 12.32 11.78  
Sea Level Pressure  
Sea Level Pressure 30.16 in    
Wind  
Wind Speed 5 mph (ENE)    
Max Wind Speed 16 mph    
Max Gust Speed 19 mph    
Visibility 10 miles    
Events      
T = Trace of Precipitation, MM = Missing Value Source: NWS Daily Summary

Daily Weather History Graph

Daily Weather History Graph

Search for Another Location

Airport or City:

Trip Planner

Search our weather history database for the weather conditions in past years. The results will help you decide how hot, cold, wet, or windy it might be!

Date:

Astronomy

Nov. 08, 2013 Rise Set
Actual Time 6:46 AM MST 5:09 PM MST
Civil Twilight 6:19 AM MST 5:36 PM MST
Nautical Twilight 5:48 AM MST 6:07 PM MST
Astronomical Twilight 5:17 AM MST 6:38 PM MST
Moon 11:44 AM MST (11/8) 10:33 PM MST (11/8)
Length of Visible Light 11h 17m
Length of Day
10h 22m
Waxing Crescent, 34% of the Moon is Illuminated
Nov 8
Waxing Crescent
Nov 9
First Quarter
Nov 17
Full
Nov 25
Last Quarter
Dec 2
New

Hourly Weather History & Observations

Time (MST) Temp. Windchill Dew Point Humidity Pressure Visibility Wind Dir Wind Speed Gust Speed Precip Events Conditions
12:53 AM 26.1 °F 21.9 °F 19.0 °F 75% 30.23 in 10.0 mi ENE 3.5 mph - N/A   Clear
1:53 AM 27.0 °F - 19.9 °F 75% 30.20 in 10.0 mi Calm Calm - N/A   Clear
2:53 AM 27.0 °F 20.5 °F 19.9 °F 75% 30.19 in 10.0 mi ENE 5.8 mph - N/A   Clear
3:53 AM 26.1 °F 20.5 °F 19.0 °F 75% 30.19 in 10.0 mi ENE 4.6 mph - N/A   Clear
4:53 AM 27.0 °F 19.5 °F 19.9 °F 75% 30.19 in 10.0 mi ESE 6.9 mph - N/A   Clear
5:53 AM 24.1 °F 17.0 °F 18.0 °F 77% 30.25 in 10.0 mi ENE 5.8 mph - N/A   Clear
6:53 AM 24.1 °F 18.2 °F 18.0 °F 77% 30.29 in 10.0 mi East 4.6 mph - N/A   Clear
7:53 AM 28.0 °F - 21.0 °F 75% 30.28 in 10.0 mi Calm Calm - N/A   Clear
8:53 AM 41.0 °F - 23.0 °F 49% 30.26 in 10.0 mi Calm Calm - N/A   Clear
9:53 AM 50.0 °F - 21.0 °F 32% 30.22 in 10.0 mi Calm Calm - N/A   Clear
10:53 AM 54.0 °F - 21.0 °F 28% 30.18 in 10.0 mi West 3.5 mph - N/A   Clear
11:53 AM 57.9 °F - 21.9 °F 25% 30.14 in 10.0 mi SW 10.4 mph - N/A   Clear
12:53 PM 59.0 °F - 21.0 °F 23% 30.09 in 10.0 mi SSW 9.2 mph - N/A   Clear
1:53 PM 60.1 °F - 21.0 °F 22% 30.06 in 10.0 mi Variable 4.6 mph - N/A   Clear
2:53 PM 59.0 °F - 12.0 °F 16% 30.06 in 10.0 mi NW 9.2 mph 19.6 mph N/A   Clear
3:53 PM 57.9 °F - 14.0 °F 18% 30.06 in 10.0 mi WNW 11.5 mph - N/A   Clear
4:53 PM 54.0 °F - 14.0 °F 21% 30.07 in 10.0 mi NW 8.1 mph - N/A   Clear
5:53 PM 41.0 °F 38.0 °F 17.1 °F 38% 30.13 in 10.0 mi ESE 4.6 mph - N/A   Clear
6:53 PM 36.0 °F 29.0 °F 17.1 °F 46% 30.17 in 10.0 mi ENE 9.2 mph - N/A   Clear
7:53 PM 36.0 °F 30.3 °F 18.0 °F 48% 30.17 in 10.0 mi NE 6.9 mph - N/A   Clear
8:53 PM 33.1 °F 27.7 °F 18.0 °F 54% 30.14 in 10.0 mi ENE 5.8 mph - N/A   Clear
9:53 PM 30.9 °F 25.2 °F 18.0 °F 59% 30.12 in 10.0 mi ENE 5.8 mph - N/A   Clear
10:53 PM 28.9 °F 22.8 °F 17.1 °F 61% 30.13 in 10.0 mi East 5.8 mph - N/A   Clear
11:53 PM 26.1 °F - 17.1 °F 69% 30.13 in 10.0 mi Calm Calm - N/A   Clear